Location: Seasalter
(51.3333°N, 1.0167°E)
Time: 03:53:51
(UTC+00:00)

ATLAS 5 CENTAUR R/B - Pass Details

Date: 26 September 2023
Orbit: 432 x 1181 km, 63.3° (Epoch: 28 November)

Event Time Altitude Azimuth Distance (km) Brightness Sun altitude
Exits shadow 02:42:47 32° 21° (NNE) 917 2.8 -27.8°
Drops below altitude 10° 02:45:18 10° 39° (NE) 1,863 4.9 -27.4°
Sets 02:47:48 0° 45° (NE) 2,884 6.3 -27.1°
